KA2FNK Weather Reports


Display with metric or nautical units.
time (UTC)temp
F
wind
direction
speed
MPH
gust
MPH
rain 1hr
in
rain 24hr
in
rain mn
in
humidity
%
barometer
mb
20240620224238 87 156 3.0 8.0 0.00 0.00 0.00 49 1023.2
20240620223737 87 196 5.0 8.0 0.00 0.00 0.00 49 1023.2
20240620223236 87 198 2.0 8.0 0.00 0.00 0.00 48 1023.3
20240620222736 87 178 1.0 8.0 0.00 0.00 0.00 49 1023.4
20240620222235 88 127 4.0 8.0 0.00 0.00 0.00 49 1023.4
20240620221734 88 195 0.0 6.0 0.00 0.00 0.00 49 1023.5
20240620221233 88 142 3.0 7.0 0.00 0.00 0.00 47 1023.6
20240620220950 88 177 2.0 7.0 0.00 0.00 0.00 46 1023.6
20240620220836 88 177 2.0 7.0 0.00 0.00 0.00 46 1023.6
20240620220231 88 168 1.0 6.0 0.00 0.00 0.00 48 1023.6
20240620215731 88 139 2.0 10.0 0.00 0.00 0.00 46 1023.9
20240620215451 88 113 4.0 10.0 0.00 0.00 0.00 45 1023.9
20240620215333 88 113 4.0 10.0 0.00 0.00 0.00 45 1023.9
20240620214729 89 165 4.0 10.0 0.00 0.00 0.00 46 1024.0
20240620214228 89 143 3.0 10.0 0.00 0.00 0.00 45 1024.0
20240620213949 90 188 4.0 9.0 0.00 0.00 0.00 45 1024.0
20240620213831 90 188 4.0 9.0 0.00 0.00 0.00 45 1024.0
20240620213225 89 215 2.0 7.0 0.00 0.00 0.00 47 1024.1
20240620212725 89 208 1.0 7.0 0.00 0.00 0.00 47 1024.3
20240620212446 89 118 1.0 7.0 0.00 0.00 0.00 47 1024.3
20240620212327 89 118 1.0 7.0 0.00 0.00 0.00 47 1024.3
20240620211720 89 102 2.0 9.0 0.00 0.00 0.00 47 1024.4
20240620211219 88 105 4.0 9.0 0.00 0.00 0.00 47 1024.4
20240620210717 87 163 2.0 5.0 0.00 0.00 0.00 49 1024.4
20240620210217 87 175 2.0 6.0 0.00 0.00 0.00 51 1024.5
20240620205716 87 126 2.0 6.0 0.00 0.00 0.00 51 1024.5
20240620205216 87 147 2.0 7.0 0.00 0.00 0.00 51 1024.5
20240620204714 87 146 4.0 7.0 0.00 0.00 0.00 51 1024.7
20240620204212 87 160 4.0 7.0 0.00 0.00 0.00 50 1024.7
20240620203711 87 16 2.0 6.0 0.00 0.00 0.00 50 1024.7
20240620203209 87 99 2.0 6.0 0.00 0.00 0.00 51 1024.9
20240620202707 87 234 2.0 4.0 0.00 0.00 0.00 50 1024.8
20240620202206 87 213 2.0 7.0 0.00 0.00 0.00 51 1024.9
20240620201705 87 163 2.0 7.0 0.00 0.00 0.00 51 1024.8
20240620201204 87 167 1.0 7.0 0.00 0.00 0.00 52 1024.9
20240620200932 87 39 2.0 7.0 0.00 0.00 0.00 51 1025.0
20240620200808 87 39 2.0 7.0 0.00 0.00 0.00 51 1025.0
20240620200202 87 91 2.0 5.0 0.00 0.00 0.00 51 1025.0
20240620195702 88 180 3.0 5.0 0.00 0.00 0.00 49 1025.0
20240620195201 87 120 2.0 5.0 0.00 0.00 0.00 51 1025.1
20240620194701 87 171 1.0 3.0 0.00 0.00 0.00 53 1025.0
20240620194159 87 81 1.0 4.0 0.00 0.00 0.00 50 1025.1
20240620193659 87 26 1.0 4.0 0.00 0.00 0.00 52 1025.1
20240620193145 88 140 0.0 4.0 0.00 0.00 0.00 54 1025.1
20240620192644 88 163 1.0 5.0 0.00 0.00 0.00 53 1025.1
20240620192144 87 158 3.0 5.0 0.00 0.00 0.00 54 1025.2
20240620191643 87 254 2.0 4.0 0.00 0.00 0.00 54 1025.1
20240620191143 87 188 1.0 3.0 0.00 0.00 0.00 53 1025.1
20240620190641 87 302 0.0 4.0 0.00 0.00 0.00 57 1025.4
20240620190137 86 91 0.0 4.0 0.00 0.00 0.00 54 1025.4
20240620185637 86 234 1.0 3.0 0.00 0.00 0.00 55 1025.4
20240620185132 86 215 0.0 5.0 0.00 0.00 0.00 55 1025.4
20240620184632 86 101 2.0 5.0 0.00 0.00 0.00 53 1025.4
20240620184131 86 29 0.0 5.0 0.00 0.00 0.00 55 1025.5
20240620183628 87 104 3.0 6.0 0.00 0.00 0.00 52 1025.6
20240620183127 87 164 2.0 6.0 0.00 0.00 0.00 56 1025.7
20240620182626 87 209 2.0 5.0 0.00 0.00 0.00 53 1025.7
20240620182126 87 75 0.0 2.0 0.00 0.00 0.00 53 1025.8
20240620181624 88 75 1.0 4.0 0.00 0.00 0.00 51 1025.8
20240620181348 89 188 1.0 4.0 0.00 0.00 0.00 52 1025.9
20240620181228 89 188 1.0 4.0 0.00 0.00 0.00 52 1025.9
20240620180622 89 213 2.0 5.0 0.00 0.00 0.00 53 1025.9
20240620180122 89 147 3.0 7.0 0.00 0.00 0.00 55 1026.0
20240620175851 88 216 2.0 7.0 0.00 0.01 0.00 53 1026.1
20240620175726 88 216 2.0 7.0 0.00 0.01 0.00 53 1026.1
20240620175121 88 109 3.0 6.0 0.00 0.01 0.00 53 1026.1
20240620174619 87 95 2.0 6.0 0.00 0.01 0.00 57 1026.1
20240620174118 87 112 3.0 6.0 0.00 0.01 0.00 57 1026.0
20240620173618 86 210 2.0 5.0 0.00 0.01 0.00 58 1026.0
20240620173557 86 189 2.0 5.0 0.00 0.01 0.00 56 1026.1
20240620173221 86 189 2.0 5.0 0.00 0.01 0.00 56 1026.1
20240620172615 86 219 1.0 6.0 0.00 0.01 0.00 56 1026.2
20240620172115 87 206 2.0 6.0 0.00 0.01 0.00 56 1026.2
20240620171614 87 187 4.0 8.0 0.00 0.01 0.00 55 1026.2
20240620171113 87 203 2.0 8.0 0.00 0.01 0.00 58 1026.2
20240620170613 87 113 3.0 6.0 0.00 0.01 0.00 59 1026.2
20240620170112 87 209 3.0 5.0 0.00 0.01 0.00 53 1026.2
20240620165611 87 236 1.0 8.0 0.00 0.01 0.00 60 1026.2
20240620165110 86 187 2.0 8.0 0.00 0.01 0.00 58 1026.2
20240620164610 86 191 3.0 6.0 0.00 0.01 0.00 60 1026.3
20240620164108 85 191 2.0 4.0 0.00 0.01 0.00 61 1026.3
20240620163608 85 236 3.0 6.0 0.00 0.01 0.00 56 1026.2
20240620163107 86 198 2.0 6.0 0.00 0.01 0.00 57 1026.1
20240620162606 85 170 2.0 5.0 0.00 0.01 0.00 60 1026.2
20240620162105 85 192 4.0 6.0 0.00 0.01 0.00 60 1026.2
20240620161825 85 202 3.0 6.0 0.00 0.01 0.00 62 1026.2
20240620161708 85 202 3.0 6.0 0.00 0.01 0.00 62 1026.2
20240620161325 86 209 2.0 3.0 0.00 0.01 0.00 59 1026.2
20240620161208 86 209 2.0 3.0 0.00 0.01 0.00 59 1026.2
20240620160602 86 158 2.0 5.0 0.00 0.01 0.00 59 1026.2
20240620160325 86 236 3.0 6.0 0.00 0.01 0.00 59 1026.2
20240620160206 86 236 3.0 6.0 0.00 0.01 0.00 59 1026.2
20240620155601 86 180 3.0 7.0 0.00 0.01 0.00 56 1026.2
20240620155319 86 192 3.0 7.0 0.00 0.01 0.00 58 1026.3
20240620155204 86 192 3.0 7.0 0.00 0.01 0.00 58 1026.3
20240620154559 86 237 3.0 7.0 0.00 0.01 0.00 59 1026.2
20240620154058 85 217 2.0 7.0 0.00 0.01 0.00 62 1026.3
20240620153558 85 247 2.0 5.0 0.00 0.01 0.00 62 1026.1
20240620153055 84 226 4.0 7.0 0.00 0.01 0.00 60 1026.1
20240620152553 85 240 1.0 7.0 0.00 0.01 0.00 61 1026.1
20240620152053 85 198 3.0 6.0 0.00 0.01 0.00 57 1026.1
20240620151552 85 161 3.0 6.0 0.00 0.01 0.00 61 1026.1
20240620151051 85 213 2.0 6.0 0.00 0.01 0.00 60 1026.0
20240620150550 85 191 2.0 7.0 0.00 0.01 0.00 62 1026.1
20240620150049 84 171 4.0 7.0 0.00 0.01 0.00 61 1026.1
20240620145810 84 240 3.0 8.0 0.00 0.01 0.00 62 1026.1
20240620145653 84 240 3.0 8.0 0.00 0.01 0.00 62 1026.1
20240620145048 84 226 4.0 8.0 0.00 0.01 0.00 62 1026.2
20240620144814 84 194 4.0 7.0 0.00 0.01 0.00 63 1026.2
20240620144651 84 194 4.0 7.0 0.00 0.01 0.00 63 1026.2
20240620144046 83 78 2.0 6.0 0.00 0.01 0.00 64 1026.2
20240620143550 83 154 4.0 8.0 0.00 0.01 0.00 65 1026.1
20240620143045 83 205 4.0 8.0 0.00 0.01 0.00 63 1026.1
20240620142810 83 275 2.0 8.0 0.00 0.01 0.00 65 1026.0
20240620142648 83 275 2.0 8.0 0.00 0.01 0.00 65 1026.0
20240620142043 83 225 2.0 6.0 0.00 0.01 0.00 65 1026.0
20240620141547 83 203 3.0 6.0 0.00 0.01 0.00 64 1026.1
20240620141041 82 160 2.0 5.0 0.00 0.01 0.00 66 1026.0
20240620140540 82 98 3.0 5.0 0.00 0.01 0.00 68 1026.0
20240620140039 82 137 2.0 6.0 0.00 0.01 0.00 67 1025.9
20240620135539 81 136 2.0 6.0 0.00 0.01 0.00 69 1025.9
20240620135046 81 157 1.0 6.0 0.00 0.01 0.00 71 1025.8
20240620134537 81 194 2.0 5.0 0.00 0.01 0.00 70 1025.7
20240620134036 81 239 1.0 3.0 0.00 0.02 0.00 71 1025.6
20240620133535 80 137 2.0 4.0 0.00 0.02 0.00 73 1025.6
20240620133034 79 23 0.0 4.0 0.00 0.02 0.00 74 1025.6
20240620132533 79 133 1.0 4.0 0.00 0.02 0.00 76 1025.5
20240620132032 78 178 2.0 4.0 0.00 0.05 0.00 80 1025.5
20240620131532 77 233 1.0 5.0 0.00 0.08 0.00 82 1025.6
20240620131031 77 192 1.0 5.0 0.00 0.09 0.00 84 1025.6
20240620130529 76 177 2.0 6.0 0.00 0.09 0.00 85 1025.6
20240620130029 75 158 2.0 6.0 0.00 0.09 0.00 85 1025.6
20240620125528 75 168 2.0 4.0 0.00 0.09 0.00 93 1025.5
20240620125032 74 104 2.0 5.0 0.00 0.09 0.00 96 1025.6
20240620124526 74 199 2.0 5.0 0.00 0.09 0.00 97 1025.6
20240620124026 73 158 1.0 5.0 0.00 0.09 0.00 97 1025.6
20240620123520 73 26 0.0 0.0 0.00 0.09 0.00 98 1025.5
20240620123018 73 26 0.0 0.0 0.00 0.09 0.00 98 1025.5
20240620122517 73 26 0.0 0.0 0.00 0.09 0.00 98 1025.6
20240620121959 73 26 0.0 0.0 0.00 0.09 0.00 98 1025.4
20240620121433 72 26 0.0 0.0 0.00 0.09 0.00 98 1025.5
20240620120930 72 26 0.0 0.0 0.00 0.09 0.00 98 1025.5
20240620120427 72 26 0.0 0.0 0.00 0.09 0.00 98 1025.4
20240620115916 72 26 0.0 0.0 0.00 0.09 0.00 98 1025.5
20240620115405 72 26 0.0 0.0 0.00 0.09 0.00 98 1025.4
20240620115118 72 26 0.0 0.0 0.00 0.09 0.00 98 1025.4
20240620115002 72 26 0.0 0.0 0.00 0.09 0.00 98 1025.4
20240620114341 72 26 0.0 0.0 0.00 0.09 0.00 98 1025.3
20240620113831 72 26 0.0 0.0 0.00 0.09 0.00 98 1025.4
20240620113325 72 26 0.0 0.0 0.00 0.09 0.00 98 1025.3
20240620112824 72 26 0.0 0.0 0.00 0.09 0.00 98 1025.3
20240620112313 71 26 0.0 0.0 0.00 0.09 0.00 98 1025.3
20240620111752 71 26 0.0 0.0 0.00 0.09 0.00 98 1025.4
20240620111516 71 26 0.0 0.0 0.00 0.09 0.00 98 1025.4
20240620111355 71 26 0.0 0.0 0.00 0.09 0.00 98 1025.4
20240620110750 72 26 0.0 0.0 0.00 0.09 0.00 98 1025.3
20240620110243 72 26 0.0 0.0 0.00 0.09 0.00 98 1025.3
20240620105742 72 26 0.0 0.0 0.00 0.09 0.00 98 1025.3
20240620105236 72 26 0.0 0.0 0.00 0.09 0.00 98 1025.2
20240620104733 72 26 0.0 0.0 0.00 0.09 0.00 98 1025.0
20240620104228 72 26 0.0 0.0 0.00 0.09 0.00 98 1025.0
20240620103726 72 26 0.0 0.0 0.00 0.09 0.00 98 1024.9
20240620103224 72 26 0.0 0.0 0.00 0.09 0.00 98 1024.9
20240620102945 72 26 0.0 0.0 0.00 0.09 0.00 98 1024.8
20240620102822 72 26 0.0 0.0 0.00 0.09 0.00 98 1024.8
20240620102443 72 26 0.0 0.0 0.00 0.09 0.00 97 1024.7
20240620102320 72 26 0.0 0.0 0.00 0.09 0.00 97 1024.7
20240620101711 72 26 0.0 0.0 0.00 0.09 0.00 98 1024.8
20240620101214 72 26 0.0 0.0 0.00 0.09 0.00 98 1024.7
20240620100644 72 26 0.0 0.0 0.00 0.09 0.00 98 1024.7
20240620100136 72 26 0.0 0.0 0.00 0.09 0.00 98 1024.5
20240620095631 72 26 0.0 0.0 0.00 0.09 0.00 97 1024.4
20240620095349 72 26 0.0 0.0 0.00 0.09 0.00 97 1024.4
20240620095233 72 26 0.0 0.0 0.00 0.09 0.00 97 1024.4
20240620094625 72 26 0.0 3.0 0.00 0.09 0.00 97 1024.4
20240620094120 73 26 0.0 3.0 0.00 0.09 0.00 97 1024.4
20240620093824 73 30 2.0 3.0 0.00 0.09 0.00 97 1024.4
20240620093708 73 30 2.0 3.0 0.00 0.09 0.00 97 1024.4
20240620093103 72 64 1.0 5.0 0.00 0.09 0.00 97 1024.4
20240620092601 73 78 3.0 5.0 0.00 0.09 0.00 97 1024.4
20240620092320 73 37 0.0 4.0 0.00 0.09 0.00 97 1024.5
20240620092205 73 37 0.0 4.0 0.00 0.09 0.00 97 1024.5
20240620091552 73 15 2.0 4.0 0.00 0.09 0.00 96 1024.4
20240620091050 73 57 2.0 3.0 0.00 0.09 0.00 96 1024.4
20240620090550 73 56 2.0 3.0 0.00 0.09 0.00 96 1024.5
20240620090049 73 40 0.0 3.0 0.00 0.09 0.00 96 1024.5
20240620085805 73 36 0.0 0.0 0.00 0.09 0.00 96 1024.5
20240620085653 73 36 0.0 0.0 0.00 0.09 0.00 96 1024.5
20240620085044 73 36 0.0 0.0 0.00 0.09 0.00 95 1024.4
20240620084539 73 36 0.0 0.0 0.00 0.09 0.00 95 1024.5
20240620084033 73 36 0.0 0.0 0.00 0.09 0.00 95 1024.4
20240620083532 73 36 0.0 0.0 0.00 0.09 0.00 95 1024.4
20240620083025 73 36 0.0 0.0 0.00 0.09 0.00 95 1024.4
20240620082525 73 36 0.0 0.0 0.00 0.09 0.00 95 1024.4
20240620082018 73 36 0.0 0.0 0.00 0.09 0.00 95 1024.4
20240620081727 73 36 0.0 0.0 0.00 0.09 0.00 95 1024.3
20240620081607 73 36 0.0 0.0 0.00 0.09 0.00 95 1024.3
20240620080951 73 36 0.0 0.0 0.00 0.09 0.00 95 1024.4
20240620080443 73 36 0.0 0.0 0.00 0.09 0.00 94 1024.4
20240620075932 73 36 0.0 0.0 0.00 0.09 0.00 93 1024.2
20240620075419 73 36 0.0 0.0 0.00 0.09 0.00 93 1024.2
20240620074908 74 36 0.0 0.0 0.00 0.09 0.00 93 1024.3
20240620074401 74 36 0.0 0.0 0.00 0.09 0.00 93 1024.2
20240620074107 74 36 0.0 0.0 0.00 0.09 0.00 93 1024.2
20240620073950 74 36 0.0 0.0 0.00 0.09 0.00 93 1024.2
20240620073333 74 36 0.0 0.0 0.00 0.09 0.00 93 1024.3
20240620072805 74 36 0.0 0.0 0.00 0.09 0.00 92 1024.3
20240620072256 74 36 0.0 0.0 0.00 0.09 0.00 92 1024.4
20240620071745 74 36 0.0 0.0 0.00 0.09 0.00 92 1024.4
20240620071240 74 36 0.0 0.0 0.00 0.09 0.00 92 1024.4
20240620070737 74 36 0.0 0.0 0.00 0.09 0.00 92 1024.4
20240620070219 74 36 0.0 0.0 0.00 0.09 0.00 92 1024.4
20240620065651 74 36 0.0 0.0 0.00 0.09 0.00 91 1024.3
20240620065150 74 36 0.0 0.0 0.00 0.09 0.00 91 1024.3
20240620064645 74 36 0.0 0.0 0.00 0.09 0.00 91 1024.4
20240620064118 74 36 0.0 0.0 0.00 0.09 0.00 91 1024.4
20240620063617 74 36 0.0 2.0 0.00 0.09 0.00 91 1024.4
20240620063326 74 36 0.0 2.0 0.00 0.09 0.00 91 1024.4
20240620063211 74 36 0.0 2.0 0.00 0.09 0.00 91 1024.4
20240620062606 74 43 2.0 4.0 0.00 0.09 0.00 91 1024.5
20240620062104 74 18 0.0 4.0 0.00 0.09 0.00 91 1024.5
20240620061601 74 30 1.0 4.0 0.00 0.09 0.00 91 1024.5
20240620061057 74 45 0.0 0.0 0.00 0.09 0.00 91 1024.5
20240620060554 74 45 0.0 0.0 0.00 0.09 0.00 91 1024.7
20240620060050 75 45 0.0 0.0 0.00 0.09 0.00 91 1024.5
20240620055546 75 45 0.0 3.0 0.00 0.09 0.00 91 1024.7
20240620055258 74 45 0.0 5.0 0.00 0.09 0.00 91 1024.7
20240620055146 74 45 0.0 5.0 0.00 0.09 0.00 91 1024.7
20240620054533 75 75 2.0 5.0 0.00 0.09 0.00 91 1024.5
20240620054033 75 35 3.0 5.0 0.00 0.09 0.00 91 1024.4
20240620054022 75 112 2.0 4.0 0.00 0.09 0.00 91 1024.5
20240620053645 75 112 2.0 4.0 0.00 0.09 0.00 91 1024.5
20240620053032 75 61 0.0 6.0 0.00 0.09 0.00 90 1024.5
20240620052530 74 9 2.0 6.0 0.00 0.09 0.00 91 1024.4
20240620052030 75 50 5.0 6.0 0.00 0.09 0.00 90 1024.5
20240620051529 75 344 3.0 4.0 0.00 0.09 0.00 90 1024.5
20240620051026 75 35 2.0 7.0 0.00 0.09 0.00 90 1024.5
20240620050519 75 33 3.0 7.0 0.00 0.09 0.00 90 1024.4
20240620050018 74 115 3.0 5.0 0.00 0.09 0.00 90 1024.4
20240620045740 75 8 0.0 4.0 0.00 0.09 0.09 90 1024.3
20240620045621 75 8 0.0 4.0 0.00 0.09 0.09 90 1024.3
20240620045011 75 52 2.0 5.0 0.00 0.09 0.09 89 1024.3
20240620044509 75 97 3.0 6.0 0.00 0.09 0.09 89 1024.4
20240620044009 75 49 3.0 6.0 0.00 0.09 0.09 89 1024.4
20240620043507 75 45 4.0 5.0 0.00 0.09 0.09 89 1024.4
20240620043007 75 63 3.0 6.0 0.00 0.09 0.09 89 1024.4
20240620042506 75 39 4.0 6.0 0.00 0.09 0.09 89 1024.5
20240620042226 75 56 0.0 0.0 0.00 0.09 0.09 88 1024.4
20240620042110 75 56 0.0 0.0 0.00 0.09 0.09 88 1024.4
20240620041505 75 56 0.0 6.0 0.00 0.09 0.09 88 1024.3
20240620041001 75 56 1.0 6.0 0.00 0.09 0.09 88 1024.2
20240620040456 75 9 0.0 5.0 0.00 0.09 0.09 88 1024.1
20240620035954 75 75 0.0 7.0 0.00 0.09 0.09 88 1024.0
20240620035453 75 43 2.0 7.0 0.00 0.09 0.09 88 1024.1
20240620034952 75 43 5.0 6.0 0.00 0.09 0.09 87 1024.1
20240620034451 75 90 4.0 7.0 0.00 0.09 0.09 87 1024.1
20240620033950 75 40 2.0 7.0 0.00 0.09 0.09 86 1024.2
20240620033450 75 23 2.0 7.0 0.00 0.09 0.09 86 1024.2
20240620033216 75 61 3.0 7.0 0.00 0.09 0.09 86 1024.1
20240620033051 75 61 3.0 7.0 0.00 0.09 0.09 86 1024.1
20240620032707 75 53 2.0 7.0 0.00 0.09 0.09 85 1024.1
20240620032551 75 53 2.0 7.0 0.00 0.09 0.09 85 1024.1
20240620031944 75 53 2.0 5.0 0.00 0.09 0.09 85 1024.1
20240620031701 75 70 2.0 6.0 0.00 0.09 0.09 85 1024.2
20240620031548 75 70 2.0 6.0 0.00 0.09 0.09 85 1024.2
20240620030943 75 101 2.0 6.0 0.00 0.09 0.09 84 1024.1
20240620030442 75 32 4.0 7.0 0.00 0.09 0.09 84 1024.0
20240620025942 75 50 0.0 7.0 0.00 0.09 0.09 84 1024.0
20240620025431 75 49 3.0 7.0 0.00 0.09 0.09 84 1023.9
20240620024930 75 35 4.0 7.0 0.00 0.09 0.09 84 1023.9
20240620024428 75 50 2.0 5.0 0.00 0.09 0.09 83 1023.7
20240620023928 75 80 2.0 4.0 0.00 0.09 0.09 84 1023.9
20240620023427 75 30 0.0 6.0 0.00 0.09 0.09 84 1023.6
20240620022926 75 30 2.0 6.0 0.00 0.09 0.09 84 1023.6
20240620022900 75 43 1.0 6.0 0.00 0.09 0.09 84 1023.6
20240620022523 75 43 1.0 6.0 0.00 0.09 0.09 84 1023.6
20240620021919 75 2 0.0 0.0 0.00 0.09 0.09 83 1023.6
20240620021405 76 2 0.0 0.0 0.00 0.09 0.09 83 1023.5
20240620020905 76 2 0.0 0.0 0.00 0.09 0.09 83 1023.5
20240620020410 76 2 0.0 0.0 0.00 0.09 0.09 83 1023.4
20240620015857 76 2 0.0 5.0 0.00 0.09 0.09 83 1023.5
20240620015357 76 2 2.0 5.0 0.00 0.09 0.09 83 1023.4
20240620014841 76 11 3.0 5.0 0.00 0.09 0.09 83 1023.4
20240620014340 76 347 1.0 4.0 0.00 0.09 0.09 83 1023.4
20240620013838 76 7 2.0 4.0 0.00 0.09 0.09 83 1023.3
20240620013337 76 25 0.0 5.0 0.00 0.09 0.09 83 1023.3
20240620013054 76 32 1.0 5.0 0.00 0.09 0.09 83 1023.4
20240620012940 76 32 1.0 5.0 0.00 0.09 0.09 83 1023.4
20240620012322 76 347 1.0 5.0 0.00 0.09 0.09 83 1023.5
20240620011821 76 8 1.0 5.0 0.00 0.09 0.09 83 1023.5
20240620011321 76 32 1.0 9.0 0.00 0.09 0.09 83 1023.5
20240620010819 76 35 2.0 9.0 0.00 0.09 0.09 83 1023.5
20240620010319 76 309 2.0 8.0 0.00 0.09 0.09 83 1023.5
20240620010041 76 305 2.0 8.0 0.00 0.09 0.09 82 1023.5
20240620005922 76 305 2.0 8.0 0.00 0.09 0.09 82 1023.5
20240620005317 76 43 3.0 8.0 0.00 0.09 0.09 82 1023.5
20240620004817 76 358 4.0 6.0 0.00 0.09 0.09 82 1023.3
20240620004531 76 18 4.0 7.0 0.00 0.09 0.09 82 1023.2
20240620004420 76 18 4.0 7.0 0.00 0.09 0.09 82 1023.2
20240620003815 76 357 3.0 7.0 0.00 0.09 0.09 83 1023.2
20240620003314 76 310 3.0 6.0 0.00 0.09 0.09 82 1023.1
20240620002813 76 52 4.0 7.0 0.00 0.09 0.09 84 1023.0
20240620002312 75 43 1.0 7.0 0.00 0.09 0.09 84 1022.9
20240620001811 75 341 4.0 6.0 0.00 0.09 0.09 84 1022.8
20240620001310 75 329 2.0 7.0 0.00 0.09 0.09 84 1022.9
20240620001032 75 300 4.0 7.0 0.00 0.09 0.09 84 1022.9
20240620000914 75 300 4.0 7.0 0.00 0.09 0.09 84 1022.9
20240620000526 75 291 3.0 8.0 0.00 0.09 0.09 85 1022.8
20240620000413 75 291 3.0 8.0 0.00 0.09 0.09 85 1022.8
20240619235810 75 341 3.0 10.0 0.00 0.09 0.09 85 1022.8
20240619235307 75 330 4.0 10.0 0.00 0.09 0.09 85 1022.9
20240619234807 75 323 4.0 10.0 0.00 0.09 0.09 85 1022.9
20240619234527 75 358 4.0 9.0 0.00 0.09 0.09 85 1022.9
20240619234410 75 358 4.0 9.0 0.00 0.09 0.09 85 1022.9
20240619233804 75 307 5.0 8.0 0.00 0.09 0.09 85 1022.8
20240619233304 75 33 5.0 8.0 0.00 0.09 0.09 85 1022.7
20240619233030 75 326 4.0 8.0 0.00 0.09 0.09 85 1022.8
20240619232908 75 326 4.0 8.0 0.00 0.09 0.09 85 1022.8
20240619232305 75 296 5.0 8.0 0.00 0.09 0.09 86 1022.9
20240619231801 74 333 3.0 8.0 0.00 0.09 0.09 86 1022.8
20240619231300 74 310 4.0 8.0 0.00 0.09 0.09 87 1022.7
20240619231018 74 299 5.0 10.0 0.00 0.09 0.09 86 1022.7
20240619230904 74 299 5.0 10.0 0.00 0.09 0.09 86 1022.7
20240619230258 74 284 3.0 10.0 0.00 0.09 0.09 87 1022.9
20240619225758 74 284 4.0 10.0 0.00 0.09 0.09 89 1022.8
20240619225516 74 348 4.0 10.0 0.00 0.09 0.09 88 1022.9
20240619225401 74 348 4.0 10.0 0.00 0.09 0.09 88 1022.9
20240619224756 74 307 4.0 9.0 0.00 0.09 0.09 88 1022.9